Torna al catalogo

COSMOS 249 DEB

AttivoLEO
NORAD 18468·DEBRIS·🇷🇺 Russia

Lanciato Oct 20, 1968 da Baikonur Cosmodrome

Loading…

Prossimi Passaggi (prossime 24 ore)

TLE

AggiornatoSource: Space-Track

Epoca: Sep 14, 2026, 01:56 UTC

1 18468U 68091DD  26257.08074761  .00000165  00000-0  28699-3 0  9995
2 18468  62.2521 293.9357 0775606 106.6592 262.0941 12.82252662610877

Traccia COSMOS 249 DEB in tempo reale con AllMySat

Download on the App Store